Cordova, AK

1:46 AM AKDT on June 25, 2017 (GMT -0800)
Cordova-Smith

Weather History for PACV - October, 2012

Change the Weather History Date:

Saturday, October 13, 2012

  Actual Average Record
Temperature  
Mean Temperature 42 °F -  
Max Temperature 48 °F 48 °F 64 °F (1969)
Min Temperature 37 °F 33 °F 17 °F (1992)
Degree Days  
Heating Degree Days 22    
Moisture  
Dew Point 38 °F    
Average Humidity 80    
Maximum Humidity 93    
Minimum Humidity 70    
Precipitation  
Precipitation 0.54 in - - ()
Sea Level Pressure  
Sea Level Pressure 29.14 in    
Wind  
Wind Speed 7 mph (ENE)    
Max Wind Speed 14 mph    
Max Gust Speed 29 mph    
Visibility 9 miles    
Events Rain    
Averages and records for this station are not official NWS values.
T = Trace of Precipitation, MM = Missing Value Source: NWS Daily Summary

Daily Weather History Graph

Daily Weather History Graph

Search for Another Location

Airport or City:

Trip Planner

Search our weather history database for the weather conditions in past years. The results will help you decide how hot, cold, wet, or windy it might be!

Date:

Astronomy

Oct. 13, 2012 Rise Set
Actual Time 8:19 AM AKDT 6:35 PM AKDT
Civil Twilight 7:36 AM AKDT 7:18 PM AKDT
Nautical Twilight 6:47 AM AKDT 8:06 PM AKDT
Astronomical Twilight 5:57 AM AKDT 8:56 PM AKDT
Moon 5:59 AM AKDT (10/13) 5:36 PM AKDT (10/13)
Length of Visible Light 11h 41m
Length of Day
10h 16m
Waning Crescent, 4% of the Moon is Illuminated
Oct 13
Waning Crescent
Oct 15
New
Oct 21
First Quarter
Oct 29
Full
Nov 6
Last Quarter

Hourly Weather History & Observations

Time (AKDT) Temp. Windchill Dew Point Humidity Pressure Visibility Wind Dir Wind Speed Gust Speed Precip Events Conditions
12:53 AM 39.0 °F - 30.0 °F 70% 29.11 in 10.0 mi Calm Calm - N/A   Overcast
1:53 AM 39.0 °F 34.0 °F 30.0 °F 70% 29.09 in 9.0 mi NW 6.9 mph - 0.00 in Rain Light Rain
2:07 AM 37.4 °F 32.1 °F 32.0 °F 81% 29.08 in 4.0 mi NNW 6.9 mph - 0.02 in Rain Rain
2:50 AM 37.4 °F 32.1 °F 35.6 °F 93% 29.07 in 6.0 mi North 6.9 mph - 0.09 in Rain Rain
2:53 AM 39.0 °F 34.8 °F 36.0 °F 89% 29.07 in 6.0 mi NNW 5.8 mph - 0.10 in Rain Rain
3:53 AM 39.0 °F 36.8 °F 36.0 °F 89% 29.07 in 4.0 mi North 3.5 mph - 0.12 in Rain Rain
4:53 AM 43.0 °F 40.3 °F 36.0 °F 76% 29.05 in 10.0 mi NE 4.6 mph - 0.02 in   Overcast
5:53 AM 44.1 °F 39.5 °F 37.0 °F 76% 29.04 in 10.0 mi East 8.1 mph 18.4 mph N/A   Overcast
6:36 AM 46.4 °F 41.9 °F 37.4 °F 71% 29.04 in 10.0 mi ENE 9.2 mph 19.6 mph N/A   Overcast
6:53 AM 46.0 °F 39.9 °F 39.0 °F 76% 29.05 in 10.0 mi East 13.8 mph 28.8 mph N/A   Overcast
7:15 AM 48.2 °F - 39.2 °F 71% 29.05 in 10.0 mi East 12.7 mph 23.0 mph 0.00 in Rain Light Rain
7:53 AM 46.9 °F - 41.0 °F 80% 29.08 in 8.0 mi ESE 12.7 mph 18.4 mph 0.04 in Rain Rain
8:53 AM 45.0 °F 40.6 °F 41.0 °F 86% 29.11 in 6.0 mi ESE 8.1 mph 18.4 mph 0.05 in Rain Light Rain
9:53 AM 45.0 °F 39.3 °F 41.0 °F 86% 29.14 in 10.0 mi ESE 11.5 mph - 0.01 in Rain Light Rain
10:53 AM 46.0 °F 40.6 °F 42.1 °F 86% 29.17 in 10.0 mi ESE 11.5 mph 18.4 mph 0.04 in Rain Light Rain
11:53 AM 46.0 °F 41.0 °F 41.0 °F 83% 29.19 in 8.0 mi ESE 10.4 mph 21.9 mph 0.01 in Rain Light Rain
12:53 PM 46.9 °F - 42.1 °F 83% 29.20 in 10.0 mi East 9.2 mph 17.3 mph 0.06 in   Overcast
1:53 PM 46.9 °F - 41.0 °F 80% 29.20 in 10.0 mi ENE 5.8 mph - 0.00 in Rain Light Rain
2:53 PM 45.0 °F 40.6 °F 39.9 °F 82% 29.21 in 10.0 mi ENE 8.1 mph - 0.03 in   Overcast
3:53 PM 44.1 °F 39.0 °F 37.9 °F 79% 29.21 in 10.0 mi ENE 9.2 mph - 0.01 in Rain Light Rain
4:53 PM 45.0 °F 42.6 °F 41.0 °F 86% 29.22 in 10.0 mi ENE 4.6 mph - 0.03 in Rain Light Rain
5:53 PM 44.1 °F 41.5 °F 39.0 °F 82% 29.23 in 10.0 mi East 4.6 mph - 0.00 in Rain Light Rain
6:53 PM 44.1 °F 37.7 °F 37.0 °F 76% 29.22 in 10.0 mi ENE 12.7 mph 18.4 mph 0.00 in Rain Light Rain
7:53 PM 45.0 °F 40.6 °F 37.0 °F 74% 29.23 in 10.0 mi ENE 8.1 mph - 0.00 in   Overcast
9:53 PM 46.0 °F 41.9 °F 37.0 °F 71% 29.23 in 10.0 mi East 8.1 mph 16.1 mph N/A   Overcast
10:53 PM 44.1 °F 40.1 °F 37.9 °F 79% 29.23 in 10.0 mi East 6.9 mph - 0.01 in Rain Light Rain
11:51 PM 44.6 °F 41.4 °F 39.2 °F 81% 29.22 in 10.0 mi East 5.8 mph - 0.01 in Rain Light Rain
11:53 PM 45.0 °F 41.2 °F 39.0 °F 80% 29.22 in 10.0 mi East 6.9 mph - 0.01 in Rain Light Rain